User: anonymous   Login
Location: Pine Mountain Observatory
(43.7910°N, 120.9377°W)
Time: 19:48:10
(UTC-08:00)
Language:

Meteor 2-19 Rocket - Orbit

View from above orbital plane
View from above orbital plane
View from above satellite
View from above satellite

Ground track
Ground track

The orbit data is extracted from the following two-line orbital elements,

1 20671U 90057B   15024.49459897  .00000027  00000-0  11339-4 0  1974
2 20671 082.5492 347.3740 0014023 251.6351 247.8371 13.84584385242020
Epoch (UTC): 24 January 2015 11:52:13
Eccentricity: 0.0014023
inclination: 82.5492°
perigee height: 937 km
apogee height: 958 km
right ascension of ascending node: 347.3740°
argument of perigee: 251.6351°
revolutions per day: 13.84584385
mean anomaly at epoch: 247.8371°
orbit number at epoch: 24202

The dashed part of the orbit path shows where the satellite is in the earth's shadow,  

DLR